K3MV-13 Weather Reports


Display with metric or nautical units.
time (UTC)temp
F
wind
direction
speed
MPH
gust
MPH
rain 1hr
in
rain 24hr
in
rain mn
in
humidity
%
barometer
mb
20260504050352 36 163 0.0 0.0 0.00 0.00 0.00 80 1014.6
20260504045849 36 163 0.0 0.0 0.00 0.00 0.00 80 1014.7
20260504045350 37 165 1.0 1.0 0.00 0.00 0.00 78 1014.7
20260504044847 37 169 0.0 0.0 0.00 0.00 0.00 78 1014.6
20260504044344 37 169 0.0 0.0 0.00 0.00 0.00 78 1014.6
20260504043842 37 169 0.0 0.0 0.00 0.00 0.00 78 1014.6
20260504043338 37 169 0.0 0.0 0.00 0.00 0.00 79 1014.4
20260504042835 37 169 0.0 0.0 0.00 0.00 0.00 79 1014.4
20260504042332 37 169 0.0 0.0 0.00 0.00 0.00 79 1014.7
20260504041828 37 180 0.0 1.0 0.00 0.00 0.00 78 1014.4
20260504041324 37 180 0.0 0.0 0.00 0.00 0.00 76 1014.4
20260504040820 37 168 0.0 0.0 0.00 0.00 0.00 76 1014.4
20260504040319 38 168 0.0 0.0 0.00 0.00 0.00 75 1014.6
20260504035814 39 168 2.0 2.0 0.00 0.00 0.00 73 1014.7
20260504035312 39 164 2.0 2.0 0.00 0.00 0.00 73 1014.8
20260504034809 39 166 2.0 2.0 0.00 0.00 0.00 73 1014.6
20260504034306 38 179 0.0 0.0 0.00 0.00 0.00 73 1014.7
20260504033803 39 179 1.0 2.0 0.00 0.00 0.00 72 1014.7
20260504033301 39 169 0.0 1.0 0.00 0.00 0.00 71 1014.8
20260504032757 39 170 2.0 2.0 0.00 0.00 0.00 71 1014.7
20260504032255 40 171 2.0 2.0 0.00 0.00 0.00 70 1014.6
20260504031751 41 189 0.0 0.0 0.00 0.00 0.00 66 1014.8
20260504031249 41 189 0.0 0.0 0.00 0.00 0.00 65 1014.8
20260504030744 40 182 2.0 2.0 0.00 0.00 0.00 67 1014.8
20260504030242 40 175 1.0 2.0 0.00 0.00 0.00 68 1014.7
20260504025738 40 161 2.0 2.0 0.00 0.00 0.00 68 1014.7
20260504025235 39 169 1.0 2.0 0.00 0.00 0.00 70 1014.8
20260504024732 39 166 2.0 2.0 0.00 0.00 0.00 71 1014.6
20260504024229 40 170 1.0 2.0 0.00 0.00 0.00 69 1014.7
20260504023726 41 187 1.0 1.0 0.00 0.00 0.00 68 1014.8
20260504023221 41 181 1.0 1.0 0.00 0.00 0.00 66 1014.8
20260504022718 41 185 2.0 2.0 0.00 0.00 0.00 67 1014.9
20260504022214 41 177 2.0 2.0 0.00 0.00 0.00 67 1014.7
20260504021712 41 177 2.0 2.0 0.00 0.00 0.00 67 1014.7
20260504021209 41 169 2.0 2.0 0.00 0.00 0.00 67 1014.8
20260504020705 41 171 2.0 2.0 0.00 0.00 0.00 66 1014.7
20260504020201 42 175 2.0 2.0 0.00 0.00 0.00 64 1014.7
20260504015658 42 169 2.0 2.0 0.00 0.00 0.00 64 1014.7
20260504015154 42 171 2.0 2.0 0.00 0.00 0.00 63 1014.7
20260504014650 43 171 2.0 2.0 0.00 0.00 0.00 62 1014.6
20260504014148 43 175 2.0 2.0 0.00 0.00 0.00 62 1014.6
20260504013645 43 172 2.0 2.0 0.00 0.00 0.00 62 1014.7
20260504013142 43 177 3.0 3.0 0.00 0.00 0.00 62 1014.6
20260504012639 43 171 2.0 2.0 0.00 0.00 0.00 63 1014.4
20260504012137 43 174 2.0 2.0 0.00 0.00 0.00 62 1014.6
20260504011633 44 164 2.0 2.0 0.00 0.00 0.00 60 1014.4
20260504011130 45 166 2.0 2.0 0.00 0.00 0.00 58 1014.3
20260504010626 46 164 1.0 1.0 0.00 0.00 0.00 54 1014.4
20260504010122 46 192 0.0 1.0 0.00 0.00 0.00 54 1014.6
20260504005619 46 192 0.0 0.0 0.00 0.00 0.00 51 1014.7
20260504005116 46 192 0.0 0.0 0.00 0.00 0.00 52 1014.4
20260504004614 47 192 0.0 0.0 0.00 0.00 0.00 51 1014.6
20260504004111 47 192 0.0 0.0 0.00 0.00 0.00 50 1014.6
20260504003607 47 180 0.0 0.0 0.00 0.00 0.00 50 1014.3
20260504003104 47 180 0.0 0.0 0.00 0.00 0.00 49 1014.3
20260504002601 47 171 1.0 1.0 0.00 0.00 0.00 52 1014.2
20260504002058 48 207 0.0 0.0 0.00 0.00 0.00 50 1014.2
20260504001556 48 207 0.0 0.0 0.00 0.00 0.00 48 1014.1
20260504001051 49 276 0.0 0.0 0.00 0.00 0.00 48 1014.3
20260504000549 49 276 2.0 2.0 0.00 0.00 0.00 47 1014.1
20260504000046 49 279 0.0 0.0 0.00 0.00 0.00 47 1014.2
20260503235544 50 272 1.0 1.0 0.00 0.00 0.00 47 1014.2
20260503235041 50 272 0.0 0.0 0.00 0.00 0.00 46 1014.4
20260503234538 50 289 0.0 1.0 0.00 0.00 0.00 45 1014.4
20260503234037 51 244 0.0 1.0 0.00 0.00 0.00 45 1014.4
20260503233533 51 325 0.0 0.0 0.00 0.00 0.00 46 1014.2
20260503233029 51 339 0.0 0.0 0.00 0.00 0.00 44 1014.3
20260503232526 51 332 3.0 3.0 0.00 0.00 0.00 42 1014.3
20260503232024 51 260 3.0 4.0 0.00 0.00 0.00 42 1014.3
20260503231521 52 255 1.0 2.0 0.00 0.00 0.00 43 1014.3
20260503231018 52 268 3.0 3.0 0.00 0.00 0.00 42 1014.2
20260503230514 52 291 1.0 2.0 0.00 0.00 0.00 42 1014.2
20260503230012 52 324 1.0 2.0 0.00 0.00 0.00 45 1014.1
20260503225509 52 260 0.0 0.0 0.00 0.00 0.00 41 1014.2
20260503225003 53 313 0.0 1.0 0.00 0.00 0.00 41 1014.2
20260503224501 53 269 3.0 6.0 0.00 0.00 0.00 41 1014.2
20260503223959 53 228 1.0 1.0 0.00 0.00 0.00 40 1014.2
20260503223457 54 318 4.0 4.0 0.00 0.00 0.00 39 1014.4
20260503222952 54 294 1.0 1.0 0.00 0.00 0.00 42 1014.2
20260503222451 54 303 2.0 2.0 0.00 0.00 0.00 39 1014.3
20260503221949 54 250 0.0 1.0 0.00 0.00 0.00 40 1014.3
20260503221447 55 202 2.0 2.0 0.00 0.00 0.00 39 1014.4
20260503220943 55 271 1.0 1.0 0.00 0.00 0.00 38 1014.2
20260503220439 55 270 2.0 2.0 0.00 0.00 0.00 38 1014.2
20260503215937 56 326 1.0 2.0 0.00 0.00 0.00 37 1014.3
20260503215433 56 203 1.0 2.0 0.00 0.00 0.00 38 1014.1
20260503214931 55 273 3.0 4.0 0.00 0.00 0.00 39 1014.2
20260503214429 55 293 2.0 3.0 0.00 0.00 0.00 37 1014.2
20260503213926 56 272 3.0 6.0 0.00 0.00 0.00 37 1014.3
20260503213424 55 274 3.0 3.0 0.00 0.00 0.00 39 1014.1
20260503212920 56 254 2.0 4.0 0.00 0.00 0.00 36 1014.3
20260503212418 56 270 2.0 4.0 0.00 0.00 0.00 39 1014.1
20260503211915 55 189 3.0 4.0 0.00 0.00 0.00 38 1014.3
20260503211412 55 270 1.0 2.0 0.00 0.00 0.00 37 1014.3
20260503210907 54 187 0.0 1.0 0.00 0.00 0.00 41 1014.4
20260503210405 54 299 1.0 1.0 0.00 0.00 0.00 39 1014.4
20260503205904 55 245 2.0 3.0 0.00 0.00 0.00 37 1014.4
20260503205402 55 305 3.0 4.0 0.00 0.00 0.00 42 1014.4
20260503204858 55 292 2.0 3.0 0.00 0.00 0.00 39 1014.6
20260503204356 55 282 4.0 4.0 0.00 0.00 0.00 37 1014.8
20260503203853 55 319 2.0 3.0 0.00 0.00 0.00 41 1014.4
20260503203350 53 33 5.0 7.0 0.00 0.00 0.00 42 1014.6
20260503202847 54 349 2.0 4.0 0.00 0.00 0.00 43 1014.8
20260503202345 54 257 2.0 2.0 0.00 0.00 0.00 40 1014.8
20260503201843 54 301 2.0 4.0 0.00 0.00 0.00 38 1014.9
20260503201340 55 337 4.0 6.0 0.00 0.00 0.00 40 1014.8
20260503200837 55 8 4.0 4.0 0.00 0.00 0.00 40 1014.7
20260503200333 55 287 3.0 4.0 0.00 0.00 0.00 39 1014.9
20260503195830 54 281 4.0 4.0 0.00 0.00 0.00 37 1014.9
20260503195327 54 234 2.0 2.0 0.00 0.00 0.00 39 1015.0
20260503194824 54 7 4.0 6.0 0.00 0.00 0.00 39 1015.0
20260503194320 54 158 3.0 4.0 0.00 0.00 0.00 38 1015.2
20260503193816 53 268 2.0 3.0 0.00 0.00 0.00 43 1015.2
20260503193312 53 290 2.0 3.0 0.00 0.00 0.00 43 1015.1
20260503192809 53 310 2.0 3.0 0.00 0.00 0.00 39 1015.4
20260503192305 54 27 3.0 4.0 0.00 0.00 0.00 40 1015.4
20260503191800 54 253 4.0 4.0 0.00 0.00 0.00 38 1015.3
20260503191257 53 315 4.0 7.0 0.00 0.00 0.00 39 1015.3
20260503190754 53 330 8.0 9.0 0.00 0.00 0.00 42 1015.4
20260503190251 53 347 2.0 3.0 0.00 0.00 0.00 39 1015.5
20260503185748 54 230 3.0 3.0 0.00 0.00 0.00 39 1015.5
20260503185244 54 344 4.0 4.0 0.00 0.00 0.00 40 1015.6
20260503184738 54 268 2.0 3.0 0.00 0.00 0.00 41 1015.5
20260503184235 54 237 1.0 2.0 0.00 0.00 0.00 41 1015.8
20260503183731 54 344 3.0 4.0 0.00 0.00 0.00 44 1015.8
20260503183229 53 319 3.0 3.0 0.00 0.00 0.00 42 1015.6
20260503182727 53 296 5.0 6.0 0.00 0.00 0.00 41 1015.8
20260503182225 53 23 5.0 6.0 0.00 0.00 0.00 42 1015.7
20260503181722 53 213 5.0 8.0 0.00 0.00 0.00 40 1015.6
20260503181219 53 324 5.0 8.0 0.00 0.00 0.00 42 1016.0
20260503180715 53 321 3.0 7.0 0.00 0.00 0.00 43 1016.0
20260503180214 53 295 4.0 7.0 0.00 0.00 0.00 42 1016.1
20260503175710 52 356 6.0 9.0 0.00 0.00 0.00 41 1016.0
20260503175208 53 280 3.0 3.0 0.00 0.00 0.00 42 1016.1
20260503174704 52 295 4.0 4.0 0.00 0.00 0.00 47 1015.9
20260503174201 52 245 4.0 7.0 0.00 0.00 0.00 41 1016.1
20260503173656 52 319 1.0 2.0 0.00 0.00 0.00 41 1016.1
20260503173152 51 291 2.0 3.0 0.00 0.00 0.00 44 1016.4
20260503172649 51 292 4.0 6.0 0.00 0.00 0.00 42 1016.3
20260503172147 51 279 5.0 6.0 0.00 0.00 0.00 43 1016.3
20260503171643 51 266 3.0 3.0 0.00 0.00 0.00 42 1016.1
20260503171141 52 261 4.0 4.0 0.00 0.00 0.00 42 1016.4
20260503170638 53 282 3.0 4.0 0.00 0.00 0.00 43 1016.5
20260503170134 52 315 4.0 6.0 0.00 0.00 0.00 46 1016.5
20260503150526 47 196 4.0 4.0 0.00 0.00 0.00 46 1017.0
20260503131419 42 225 3.0 4.0 0.00 0.00 0.00 63 1016.9
20260503130916 42 228 1.0 2.0 0.00 0.00 0.00 63 1017.0
20260503130413 41 21 2.0 3.0 0.00 0.00 0.00 65 1017.0
20260503110817 31 233 0.0 0.0 0.00 0.00 0.00 94 1016.4
20260503110314 31 250 0.0 0.0 0.00 0.00 0.00 94 1016.3
20260503100240 30 250 0.0 0.0 0.00 0.00 0.00 92 1015.4
20260503090200 32 230 0.0 0.0 0.00 0.00 0.00 89 1015.3
20260503081630 32 243 0.0 1.0 0.00 0.00 0.00 88 1015.2
20260503081127 32 257 0.0 0.0 0.00 0.00 0.00 88 1015.0
20260503080623 32 269 0.0 0.0 0.00 0.00 0.00 88 1015.1
20260503080120 32 279 1.0 1.0 0.00 0.00 0.00 87 1015.0
20260503072557 33 292 0.0 0.0 0.00 0.00 0.00 82 1014.8
20260503072054 33 292 0.0 0.0 0.00 0.00 0.00 82 1014.7
20260503071550 33 292 0.0 0.0 0.00 0.00 0.00 81 1014.6
20260503071047 33 288 0.0 0.0 0.00 0.00 0.00 80 1014.6
20260503070543 33 333 2.0 2.0 0.00 0.00 0.00 80 1014.7
20260503054957 35 299 0.0 0.0 0.00 0.00 0.00 79 1014.7
20260503054453 35 337 0.0 0.0 0.00 0.00 0.00 79 1014.8
20260503053951 35 322 2.0 3.0 0.00 0.00 0.00 78 1014.8
20260503053449 35 341 2.0 2.0 0.00 0.00 0.00 78 1014.7
20260503052945 35 337 2.0 2.0 0.00 0.00 0.00 78 1014.7